Location: Peterborough
(44.3091°N, 78.3197°W)
Time: 04:47:32
(UTC-04:00)

Transit 2A Rocket - Visible Passes

Search period start: 22 March 2023 00:00
Search period end: 01 April 2023 00:00
Orbit: 583 x 916 km, 66.7° (Epoch: 21 March)

Date Brightness Start Highest point End Pass type
(mag) Time Alt. Az. Time Alt. Az. Time Alt. Az.
22 Mar 6.9 20:05:39 10° N 20:10:08 21° NE 20:14:34 10° E visible
22 Mar 5.2 21:47:34 10° NNW 21:53:45 80° ENE 21:54:28 69° ESE visible
22 Mar 7.5 23:31:37 10° WNW 23:34:21 17° W 23:34:21 17° W visible
23 Mar 5.6 21:04:24 10° NNW 21:10:24 52° NE 21:12:48 33° ESE visible
23 Mar 6.7 22:47:31 10° NW 22:52:42 31° WSW 22:52:42 31° WSW visible
24 Mar 6.1 20:21:21 10° NNW 20:26:56 35° NE 20:31:13 15° ESE visible
24 Mar 5.9 22:03:53 10° NW 22:09:46 50° WSW 22:11:06 42° SSW visible
25 Mar 5.3 21:20:30 10° NW 21:26:38 80° WSW 21:29:34 31° SSE visible
25 Mar 7.6 23:05:30 10° WNW 23:08:13 13° W 23:09:28 13° WSW visible
26 Mar 5.4 20:37:15 10° NNW 20:43:22 66° NE 20:48:06 16° SE visible
26 Mar 7.2 22:20:49 10° NW 22:25:25 23° WSW 22:28:01 17° SW visible
27 Mar 5.8 19:54:07 10° NNW 19:59:57 43° NE 20:05:33 10° ESE visible
27 Mar 6.5 21:36:58 10° NW 21:42:31 38° WSW 21:46:39 16° S visible
28 Mar 5.8 20:53:26 10° NW 20:59:27 62° WSW 21:05:09 10° SSE visible
29 Mar 5.3 20:10:07 10° NNW 20:16:16 84° ENE 20:22:05 10° SSE visible
29 Mar 7.7 21:54:21 10° WNW 21:58:02 17° WSW 22:01:37 10° SW visible
30 Mar 7.1 21:10:08 10° NW 21:15:11 28° WSW 21:20:01 10° SSW visible
31 Mar 6.4 20:26:27 10° NW 20:32:13 46° WSW 20:37:41 10° S visible
